Simultaneous Nadir Overpasses (SNOs) Predictions

Prediction of SNOs between AQUA and NOAA-19 Satellite Orbit:

Table of predicted SNOs for the next 14.0 days since TLE Epoch: 7/5/2019
Index Date (AQUA) Time (AQUA) Lat,Lon (AQUA) SZA (AQUA ) Date (NOAA-19) Time (NOAA-19) Lat,Lon (NOAA-19) SZA (NOAA-19 ) Distance(km) Time Diff (sec)
1 07/06/2019 15:08:30 80.35, -80.72 59.49 07/06/2019 15:08:01 80.37, -80.84 59.53 3.08 29
2 07/06/2019 15:57:58 -80.38, 86.57 120.45 07/06/2019 15:59:06 -80.37, 86.44 120.47 2.97 68
3 07/08/2019 20:42:14 -80.36, 15.77 120.25 07/08/2019 20:41:31 -80.35, 15.63 120.22 2.63 43
4 07/08/2019 21:31:41 80.38,-176.86 59.81 07/08/2019 21:32:26 80.37,-176.77 59.77 2.18 45
5 07/11/2019 02:15:57 80.36, 112.30 60.04 07/11/2019 02:14:52 80.34, 112.17 60.07 3.16 65
6 07/11/2019 03:05:24 -80.36, -80.07 119.95 07/11/2019 03:05:55 -80.37, -80.11 119.96 1.10 31
7 07/13/2019 08:39:07 80.37, 16.43 60.38 07/13/2019 08:39:16 80.36, 16.54 60.36 2.28 9
8 07/15/2019 14:12:50 -80.35, 113.19 119.32 07/15/2019 14:12:44 -80.36, 113.22 119.31 1.48 6
9 07/17/2019 19:46:33 80.36,-150.37 61.08 07/17/2019 19:46:06 80.35,-150.22 61.07 3.25 27




NCC Satellite Simultaneous Nadir Overpasses (SNOs) Prediction Service
